Tracking 19484 objects as of 20-Jan-2019
HD Live streaming from Space Station
objects crossing your sky now

ETS 6

Track ETS 6 now!
ETS 6 is classified as:


NORAD ID: 23230
Int'l Code: 1994-056A
Perigee: 8,436.3 km
Apogee: 38,817.8 km
Inclination: 13.6 °
Period: 861.8 minutes
Semi major axis: 29998 km
RCS: 36.5633 m2 (large)
Launch date: August 28, 1994
Source: Japan (JPN)
Launch site: TANEGASHIMA SPACE CENTER (TNSTA)
aabbcc
Your satellite tracking list
Your tracking list is empty




NASA's NSSDC Master Catalog

Two Line Element Set (TLE):
1 23230U 94056A   19019.33442562 -.00000037 +00000-0 +00000-0 0  9994
2 23230 013.6231 086.4488 5063923 140.4225 282.6627 01.67095174149021
Source of the keplerian elements: AFSPC